STARLINK-1688 (46371 NORAD) Tracking and Keplerian Element Data

This shows tracking and keplerian element data for the satellite.

Feedback or suggestion? Click here.




ElementValue
Catalog46371
NameSTARLINK-1688
Epoch Orbit177
Epoch Day338.66668981
Epoch Year2020
RAAN345.1849
Inclination52.9969
Eccentricity0.0001434
Argument of Perigee61.6989
Mean Anonmoly26.6268
Mean Motion15.20058913
Decay Rate-0.01053047
L11 46371U 20062AY 20338.66668981 -.01053047 00000-0 -52608-1 0 9991
L22 46371 52.9969 345.1849 0001434 61.6989 26.6268 15.20058913 1777

Live tracking and technical data element details for STARLINK-1688 (NORAD 46371). STARLINK-1688 can be tracked NOW for your location showing map with azimuth and elevation plus other details from your city location.

Track the satellite on the map from your city or location and see movement details for azimuth, elevation, latitude, longitude, range, height, and movement on the map or in text.







IsCatalogInMostPopularTable: catalog: 46371, numindb: 29
Update: records affected: 1



GetName: 46371 STARLINK-1688

Hit Count: updated at: Sat, 05 Dec 2020 04:42:03 GMT